カタログに戻る

STARLINK-5585

運用中通信VLEO
NORAD 57333·PAYLOAD·🇺🇸 United States

打ち上げ Jul 16, 2023 から Cape Canaveral Space Force Station

Loading…

次のパス (今後24時間)

TLE

最新Source: CelesTrak SupGP

元期: Sep 15, 2026, 01:50 UTC

1 57333C 23099F   26258.07687500 -.00004323  00000+0 -15660-3 0  2582
2 57333  42.9993 262.8180 0001417 262.3816   5.4095 15.27577574    11

AllMySatでSTARLINK-5585をリアルタイム追跡

Download on the App Store